Location: Blackwater Beach
(38.5801°N, 75.1577°W)
Time: 09:58:09
(UTC+00:00)

ATLAS 5 CENTAUR R/B - Pass Details

Date: 13 February 2026
Orbit: 366 x 1075 km, 63.3° (Epoch: 10 March)

Event Time Altitude Azimuth Distance (km) Brightness Sun altitude
Rises 23:20:15 0° 316° (NW) 2,885 5.5 -9.2°
Reaches altitude 10° 23:22:29 10° 307° (NW) 2,087 4.9 -9.6°
Maximum altitude 23:26:50 35° 242° (WSW) 1,217 3.8 -10.4°
Drops below altitude 10° 23:32:02 10° 179° (S) 2,513 4.8 -11.4°
Sets 23:34:58 0° 171° (S) 3,562 5.4 -12.0°
